Location: Ferintosh
(52.7647°N, 112.9692°W)
Time: 16:37:19
(UTC+00:00)

Tiros 1 despin weight - Pass Details

Date: 23 May 2024
Orbit: 577 x 621 km, 48.2° (Epoch: 19 June)

Event Time Altitude Azimuth Distance (km) Brightness Sun altitude
Exits shadow 08:37:15 27° 195° (SSW) 1,128 ? -15.0°
Maximum altitude 08:38:32 33° 161° (SSE) 991 ? -15.0°
Drops below altitude 10° 08:42:25 10° 97° (E) 1,892 ? -14.8°
Sets 08:44:50 0° 88° (E) 2,790 ? -14.7°
